TimeEST,TemperatureF,Dew PointF,Humidity,Sea Level PressureIn,VisibilityMPH,Wind Direction,Wind SpeedMPH,Gust SpeedMPH,PrecipitationIn,Events,Conditions,WindDirDegrees,DateUTC
12:54 AM,34.0,28.9,82,30.32,10.0,Calm,Calm,-,N/A,,Clear,0,2012-11-16 05:54:00
1:54 AM,33.1,30.0,89,30.32,10.0,Calm,Calm,-,N/A,,Clear,0,2012-11-16 06:54:00
2:54 AM,32.0,28.9,88,30.32,10.0,Calm,Calm,-,N/A,,Clear,0,2012-11-16 07:54:00
3:54 AM,33.1,28.9,85,30.33,10.0,Calm,Calm,-,N/A,,Clear,0,2012-11-16 08:54:00
4:54 AM,34.0,28.0,79,30.32,10.0,Calm,Calm,-,N/A,,Clear,0,2012-11-16 09:54:00
5:54 AM,33.1,27.0,78,30.32,10.0,North,3.5,-,N/A,,Clear,10,2012-11-16 10:54:00
6:54 AM,33.1,27.0,78,30.33,10.0,North,4.6,-,N/A,,Clear,360,2012-11-16 11:54:00
7:54 AM,34.0,28.0,79,30.35,10.0,North,4.6,-,N/A,,Clear,10,2012-11-16 12:54:00
8:54 AM,36.0,28.9,76,30.36,10.0,NNE,4.6,-,N/A,,Clear,30,2012-11-16 13:54:00
9:54 AM,39.0,28.9,67,30.37,10.0,North,5.8,-,N/A,,Clear,10,2012-11-16 14:54:00
10:54 AM,42.1,28.9,60,30.36,10.0,NE,4.6,-,N/A,,Clear,40,2012-11-16 15:54:00
11:54 AM,43.0,27.0,53,30.33,10.0,Calm,Calm,-,N/A,,Clear,0,2012-11-16 16:54:00
12:54 PM,46.0,28.0,50,30.32,10.0,Variable,4.6,-,N/A,,Clear,0,2012-11-16 17:54:00
1:54 PM,45.0,27.0,49,30.32,10.0,Variable,3.5,-,N/A,,Clear,0,2012-11-16 18:54:00
2:54 PM,45.0,27.0,49,30.32,10.0,NNW,4.6,-,N/A,,Clear,340,2012-11-16 19:54:00
3:54 PM,44.1,27.0,51,30.34,10.0,NNW,3.5,-,N/A,,Clear,340,2012-11-16 20:54:00
4:54 PM,42.1,27.0,55,30.35,10.0,NNW,4.6,-,N/A,,Clear,340,2012-11-16 21:54:00
5:54 PM,41.0,27.0,57,30.36,10.0,Calm,Calm,-,N/A,,Clear,0,2012-11-16 22:54:00
6:54 PM,39.9,27.0,60,30.38,10.0,Calm,Calm,-,N/A,,Clear,0,2012-11-16 23:54:00
7:54 PM,37.0,26.1,65,30.38,10.0,WSW,3.5,-,N/A,,Clear,250,2012-11-17 00:54:00
8:54 PM,37.0,26.1,65,30.40,10.0,NW,3.5,-,N/A,,Clear,320,2012-11-17 01:54:00
9:54 PM,36.0,25.0,64,30.43,10.0,NNW,3.5,-,N/A,,Clear,340,2012-11-17 02:54:00
10:54 PM,34.0,24.1,67,30.44,10.0,Calm,Calm,-,N/A,,Clear,0,2012-11-17 03:54:00
11:54 PM,34.0,25.0,70,30.45,10.0,Calm,Calm,-,N/A,,Clear,0,2012-11-17 04:54:00